Year,Month,Day,Hour,Minute,Value (Times are PST for temperature in C)
2017,10,23,00,00,6.70
2017,10,23,00,01,6.60
2017,10,23,00,02,6.60
2017,10,23,00,03,6.70
2017,10,23,00,04,6.70
2017,10,23,00,05,6.70
2017,10,23,00,06,6.70
2017,10,23,00,07,6.70
2017,10,23,00,08,6.70
2017,10,23,00,09,6.70
2017,10,23,00,10,6.80
2017,10,23,00,11,6.80
2017,10,23,00,12,6.80
2017,10,23,00,13,6.70
2017,10,23,00,14,6.70
2017,10,23,00,15,6.70
2017,10,23,00,16,6.70
2017,10,23,00,17,6.70
2017,10,23,00,18,6.60
2017,10,23,00,19,6.60
2017,10,23,00,20,6.60
2017,10,23,00,21,6.50
2017,10,23,00,22,6.50
2017,10,23,00,23,6.50
2017,10,23,00,24,6.50
2017,10,23,00,25,6.50
2017,10,23,00,26,6.50
2017,10,23,00,27,6.50
2017,10,23,00,28,6.50
2017,10,23,00,29,6.50
2017,10,23,00,30,6.50
2017,10,23,00,31,6.60
2017,10,23,00,32,6.60
2017,10,23,00,33,6.60
2017,10,23,00,34,6.60
2017,10,23,00,35,6.60
2017,10,23,00,36,6.60
2017,10,23,00,37,6.60
2017,10,23,00,38,6.60
2017,10,23,00,39,6.60
2017,10,23,00,40,6.70
2017,10,23,00,41,6.70
2017,10,23,00,42,6.70
2017,10,23,00,43,6.70
2017,10,23,00,44,6.80
2017,10,23,00,45,6.80
2017,10,23,00,46,6.80
2017,10,23,00,47,6.80
2017,10,23,00,48,6.80
2017,10,23,00,49,6.80
2017,10,23,00,50,6.80
2017,10,23,00,51,6.80
2017,10,23,00,52,6.80
2017,10,23,00,53,6.70
2017,10,23,00,54,6.70
2017,10,23,00,55,6.60
2017,10,23,00,56,6.60
2017,10,23,00,57,6.60
2017,10,23,00,58,6.50
2017,10,23,00,59,6.50
2017,10,23,01,00,6.40
2017,10,23,01,01,6.40
2017,10,23,01,02,6.40
2017,10,23,01,03,6.40
2017,10,23,01,04,6.40
2017,10,23,01,05,6.40
2017,10,23,01,06,6.40
2017,10,23,01,07,6.40
2017,10,23,01,08,6.40
2017,10,23,01,09,6.40
2017,10,23,01,10,6.40
2017,10,23,01,11,6.40
2017,10,23,01,12,6.40
2017,10,23,01,13,6.40
2017,10,23,01,14,6.40
2017,10,23,01,15,6.40
2017,10,23,01,16,6.50
2017,10,23,01,17,6.50
2017,10,23,01,18,6.60
2017,10,23,01,19,6.70
2017,10,23,01,20,6.70
2017,10,23,01,21,6.80
2017,10,23,01,22,6.80
2017,10,23,01,23,6.80
2017,10,23,01,24,6.80
2017,10,23,01,25,6.90
2017,10,23,01,26,6.90
2017,10,23,01,27,6.80
2017,10,23,01,28,6.80
2017,10,23,01,29,6.80
2017,10,23,01,30,6.80
2017,10,23,01,31,6.70
2017,10,23,01,32,6.70
2017,10,23,01,33,6.70
2017,10,23,01,34,6.70
2017,10,23,01,35,6.60
2017,10,23,01,36,6.60
2017,10,23,01,37,6.60
2017,10,23,01,38,6.60
2017,10,23,01,39,6.60
2017,10,23,01,40,6.60
2017,10,23,01,41,6.60
2017,10,23,01,42,6.60
2017,10,23,01,43,6.60
2017,10,23,01,44,6.60
2017,10,23,01,45,6.70
2017,10,23,01,46,6.70
2017,10,23,01,47,6.70
2017,10,23,01,48,6.70
2017,10,23,01,49,6.70
2017,10,23,01,50,6.70
2017,10,23,01,51,6.70
2017,10,23,01,52,6.70
2017,10,23,01,53,6.70
2017,10,23,01,54,6.70
2017,10,23,01,55,6.70
2017,10,23,01,56,6.70
2017,10,23,01,57,6.70
2017,10,23,01,58,6.70
2017,10,23,01,59,6.70
2017,10,23,02,00,6.80
2017,10,23,02,01,6.80
2017,10,23,02,02,6.80
2017,10,23,02,03,6.80
2017,10,23,02,04,6.80
2017,10,23,02,05,6.80
2017,10,23,02,06,6.80
2017,10,23,02,07,6.80
2017,10,23,02,08,6.80
2017,10,23,02,09,6.80
2017,10,23,02,10,6.80
2017,10,23,02,11,6.80
2017,10,23,02,12,6.90
2017,10,23,02,13,6.90
2017,10,23,02,14,6.90
2017,10,23,02,15,6.90
2017,10,23,02,16,6.90
2017,10,23,02,17,6.90
2017,10,23,02,18,6.90
2017,10,23,02,19,6.90
2017,10,23,02,20,6.90
2017,10,23,02,21,6.90
2017,10,23,02,22,6.90
2017,10,23,02,23,6.90
2017,10,23,02,24,6.90
2017,10,23,02,25,6.90
2017,10,23,02,26,6.80
2017,10,23,02,27,6.80
2017,10,23,02,28,6.90
2017,10,23,02,29,6.90
2017,10,23,02,30,6.90
2017,10,23,02,31,6.90
2017,10,23,02,32,6.90
2017,10,23,02,33,6.90
2017,10,23,02,34,6.90
2017,10,23,02,35,6.90
2017,10,23,02,36,7.00
2017,10,23,02,37,7.00
2017,10,23,02,38,7.00
2017,10,23,02,39,7.00
2017,10,23,02,40,7.00
2017,10,23,02,41,7.10
2017,10,23,02,42,7.10
2017,10,23,02,43,7.10
2017,10,23,02,44,7.10
2017,10,23,02,45,7.10
2017,10,23,02,46,7.10
2017,10,23,02,47,7.10
2017,10,23,02,48,7.10
2017,10,23,02,49,7.20
2017,10,23,02,50,7.20
2017,10,23,02,51,7.20
2017,10,23,02,52,7.20
2017,10,23,02,53,7.20
2017,10,23,02,54,7.20
2017,10,23,02,55,7.20
2017,10,23,02,56,7.20
2017,10,23,02,57,7.20
2017,10,23,02,58,7.30
2017,10,23,02,59,7.30
2017,10,23,03,00,7.30
2017,10,23,03,01,7.30
2017,10,23,03,02,7.40
2017,10,23,03,03,7.40
2017,10,23,03,04,7.40
2017,10,23,03,05,7.40
2017,10,23,03,06,7.40
2017,10,23,03,07,7.40
2017,10,23,03,08,7.40
2017,10,23,03,09,7.40
2017,10,23,03,10,7.40
2017,10,23,03,11,7.40
2017,10,23,03,12,7.30
2017,10,23,03,13,7.30
2017,10,23,03,14,7.30
2017,10,23,03,15,7.30
2017,10,23,03,16,7.30
2017,10,23,03,17,7.30
2017,10,23,03,18,7.30
2017,10,23,03,19,7.30
2017,10,23,03,20,7.30
2017,10,23,03,21,7.30
2017,10,23,03,22,7.40
2017,10,23,03,23,7.40
2017,10,23,03,24,7.40
2017,10,23,03,25,7.40
2017,10,23,03,26,7.40
2017,10,23,03,27,7.40
2017,10,23,03,28,7.40
2017,10,23,03,29,7.40
2017,10,23,03,30,7.40
2017,10,23,03,31,7.50
2017,10,23,03,32,7.50
2017,10,23,03,33,7.50
2017,10,23,03,34,7.50
2017,10,23,03,35,7.50
2017,10,23,03,36,7.50
2017,10,23,03,37,7.50
2017,10,23,03,38,7.50
2017,10,23,03,39,7.50
2017,10,23,03,40,7.50
2017,10,23,03,41,7.50
2017,10,23,03,42,7.50
2017,10,23,03,43,7.60
2017,10,23,03,44,7.60
2017,10,23,03,45,7.60
2017,10,23,03,46,7.60
2017,10,23,03,47,7.60
2017,10,23,03,48,7.70
2017,10,23,03,49,7.70
2017,10,23,03,50,7.70
2017,10,23,03,51,7.80
2017,10,23,03,52,7.80
2017,10,23,03,53,7.80
2017,10,23,03,54,7.80
2017,10,23,03,55,7.80
2017,10,23,03,56,7.80
2017,10,23,03,57,7.80
2017,10,23,03,58,7.80
2017,10,23,03,59,7.80
2017,10,23,04,00,7.80
2017,10,23,04,01,7.80
2017,10,23,04,02,7.80
2017,10,23,04,03,7.80
2017,10,23,04,04,7.80
2017,10,23,04,05,7.90
2017,10,23,04,06,7.90
2017,10,23,04,07,7.90
2017,10,23,04,08,8.00
2017,10,23,04,09,8.00
2017,10,23,04,10,8.10
2017,10,23,04,11,8.10
2017,10,23,04,12,8.10
2017,10,23,04,13,8.20
2017,10,23,04,14,8.30
2017,10,23,04,15,8.30
2017,10,23,04,16,8.40
2017,10,23,04,17,8.40
2017,10,23,04,18,8.50
2017,10,23,04,19,8.50
2017,10,23,04,20,8.60
2017,10,23,04,21,8.60
2017,10,23,04,22,8.60
2017,10,23,04,23,8.60
2017,10,23,04,24,8.70
2017,10,23,04,25,8.70
2017,10,23,04,26,8.70
2017,10,23,04,27,8.80
2017,10,23,04,28,8.80
2017,10,23,04,29,8.90
2017,10,23,04,30,9.00
2017,10,23,04,31,9.00
2017,10,23,04,32,9.10
2017,10,23,04,33,9.20
2017,10,23,04,34,9.30
2017,10,23,04,35,9.30
2017,10,23,04,36,9.40
2017,10,23,04,37,9.50
2017,10,23,04,38,9.50
2017,10,23,04,39,9.60
2017,10,23,04,40,9.70
2017,10,23,04,41,9.70
2017,10,23,04,42,9.80
2017,10,23,04,43,9.80
2017,10,23,04,44,9.90
2017,10,23,04,45,9.90
2017,10,23,04,46,9.90
2017,10,23,04,47,9.90
2017,10,23,04,48,10.00
2017,10,23,04,49,10.00
2017,10,23,04,50,10.00
2017,10,23,04,51,10.00
2017,10,23,04,52,10.10
2017,10,23,04,53,10.00
2017,10,23,04,54,10.00
2017,10,23,04,55,10.00
2017,10,23,04,56,9.90
2017,10,23,04,57,9.90
2017,10,23,04,58,9.90
2017,10,23,04,59,9.90
2017,10,23,05,00,9.90
2017,10,23,05,01,9.90
2017,10,23,05,02,9.90
2017,10,23,05,03,9.90
2017,10,23,05,04,10.00
2017,10,23,05,05,10.00
2017,10,23,05,06,10.10
2017,10,23,05,07,10.10
2017,10,23,05,08,10.20
2017,10,23,05,09,10.30
2017,10,23,05,10,10.30
2017,10,23,05,11,10.50
2017,10,23,05,12,10.60
2017,10,23,05,13,10.80
2017,10,23,05,14,10.90
2017,10,23,05,15,11.00
2017,10,23,05,16,11.00
2017,10,23,05,17,11.20
2017,10,23,05,18,11.20
2017,10,23,05,19,11.30
2017,10,23,05,20,11.40
2017,10,23,05,21,11.50
2017,10,23,05,22,11.50
2017,10,23,05,23,11.60
2017,10,23,05,24,11.70
2017,10,23,05,25,11.70
2017,10,23,05,26,11.70
2017,10,23,05,27,11.80
2017,10,23,05,28,11.80
2017,10,23,05,29,11.80
2017,10,23,05,30,11.80
2017,10,23,05,31,11.80
2017,10,23,05,32,11.80
2017,10,23,05,33,11.70
2017,10,23,05,34,11.70
2017,10,23,05,35,11.70
2017,10,23,05,36,11.70
2017,10,23,05,37,11.60
2017,10,23,05,38,11.60
2017,10,23,05,39,11.60
2017,10,23,05,40,11.50
2017,10,23,05,41,11.50
2017,10,23,05,42,11.50
2017,10,23,05,43,11.40
2017,10,23,05,44,11.40
2017,10,23,05,45,11.40
2017,10,23,05,46,11.40
2017,10,23,05,47,11.30
2017,10,23,05,48,11.30
2017,10,23,05,49,11.20
2017,10,23,05,50,11.20
2017,10,23,05,51,11.10
2017,10,23,05,52,11.10
2017,10,23,05,53,11.10
2017,10,23,05,54,11.00
2017,10,23,05,55,11.00
2017,10,23,05,56,11.00
2017,10,23,05,57,10.90
2017,10,23,05,58,10.90
2017,10,23,05,59,10.90
2017,10,23,06,00,10.90
2017,10,23,06,01,10.90
2017,10,23,06,02,10.80
2017,10,23,06,03,10.80
2017,10,23,06,04,10.80
2017,10,23,06,05,10.80
2017,10,23,06,06,10.80
2017,10,23,06,07,10.80
2017,10,23,06,08,10.80
2017,10,23,06,09,10.80
2017,10,23,06,10,10.80
2017,10,23,06,11,10.70
2017,10,23,06,12,10.70
2017,10,23,06,13,10.70
2017,10,23,06,14,10.70
2017,10,23,06,15,10.70
2017,10,23,06,16,10.70
2017,10,23,06,17,10.70
2017,10,23,06,18,10.70
2017,10,23,06,19,10.70
2017,10,23,06,20,10.70
2017,10,23,06,21,10.70
2017,10,23,06,22,10.70
2017,10,23,06,23,10.70
2017,10,23,06,24,10.70
2017,10,23,06,25,10.70
2017,10,23,06,26,10.80
2017,10,23,06,27,10.80
2017,10,23,06,28,10.80
2017,10,23,06,29,10.80
2017,10,23,06,30,10.80
2017,10,23,06,31,10.90
2017,10,23,06,32,10.90
2017,10,23,06,33,10.90
2017,10,23,06,34,10.90
2017,10,23,06,35,11.00
2017,10,23,06,36,11.00
2017,10,23,06,37,11.00
2017,10,23,06,38,11.00
2017,10,23,06,39,11.10
2017,10,23,06,40,11.10
2017,10,23,06,41,11.10
2017,10,23,06,42,11.10
2017,10,23,06,43,11.10
2017,10,23,06,44,11.10
2017,10,23,06,45,11.10
2017,10,23,06,46,11.10
2017,10,23,06,47,11.20
2017,10,23,06,48,11.20
2017,10,23,06,49,11.20
2017,10,23,06,50,11.20
2017,10,23,06,51,11.20
2017,10,23,06,52,11.20
2017,10,23,06,53,11.20
2017,10,23,06,54,11.10
2017,10,23,06,55,11.10
2017,10,23,06,56,11.10
2017,10,23,06,57,11.10
2017,10,23,06,58,11.10
2017,10,23,06,59,11.10
2017,10,23,07,00,11.10
2017,10,23,07,01,11.00
2017,10,23,07,02,11.00
2017,10,23,07,03,11.00
2017,10,23,07,04,11.00
2017,10,23,07,05,11.00
2017,10,23,07,06,10.90
2017,10,23,07,07,10.90
2017,10,23,07,08,10.90
2017,10,23,07,09,10.90
2017,10,23,07,10,10.90
2017,10,23,07,11,10.90
2017,10,23,07,12,10.80
2017,10,23,07,13,10.80
2017,10,23,07,14,10.80
2017,10,23,07,15,10.80
2017,10,23,07,16,10.80
2017,10,23,07,17,10.80
2017,10,23,07,18,10.80
2017,10,23,07,19,10.80
2017,10,23,07,20,10.80
2017,10,23,07,21,10.80
2017,10,23,07,22,10.80
2017,10,23,07,23,10.80
2017,10,23,07,24,10.80
2017,10,23,07,25,10.80
2017,10,23,07,26,10.80
2017,10,23,07,27,10.80
2017,10,23,07,28,10.80
2017,10,23,07,29,10.80
2017,10,23,07,30,10.80
2017,10,23,07,31,10.80
2017,10,23,07,32,10.80
2017,10,23,07,33,10.80
2017,10,23,07,34,10.90
2017,10,23,07,35,10.90
2017,10,23,07,36,10.90
2017,10,23,07,37,10.90
2017,10,23,07,38,10.90
2017,10,23,07,39,10.90
2017,10,23,07,40,11.00
2017,10,23,07,41,11.00
2017,10,23,07,42,11.00
2017,10,23,07,43,11.00
2017,10,23,07,44,11.10
2017,10,23,07,45,11.10
2017,10,23,07,46,11.10
2017,10,23,07,47,11.10
2017,10,23,07,48,11.20
2017,10,23,07,49,11.20
2017,10,23,07,50,11.20
2017,10,23,07,51,11.20
2017,10,23,07,52,11.20
2017,10,23,07,53,11.20
2017,10,23,07,54,11.20
2017,10,23,07,55,11.20
2017,10,23,07,56,11.20
2017,10,23,07,57,11.20
2017,10,23,07,58,11.20
2017,10,23,07,59,11.20
2017,10,23,08,00,11.20
2017,10,23,08,01,11.20
2017,10,23,08,02,11.20
2017,10,23,08,03,11.20
2017,10,23,08,04,11.20
2017,10,23,08,05,11.20
2017,10,23,08,06,11.20
2017,10,23,08,07,11.20
2017,10,23,08,08,11.20
2017,10,23,08,09,11.30
2017,10,23,08,10,11.20
2017,10,23,08,11,11.20
2017,10,23,08,12,11.20
2017,10,23,08,13,11.20
2017,10,23,08,14,11.20
2017,10,23,08,15,11.20
2017,10,23,08,16,11.20
2017,10,23,08,17,11.20
2017,10,23,08,18,11.20
2017,10,23,08,19,11.20
2017,10,23,08,20,11.20
2017,10,23,08,21,11.20
2017,10,23,08,22,11.20
2017,10,23,08,23,11.20
2017,10,23,08,24,11.20
2017,10,23,08,25,11.20
2017,10,23,08,26,11.20
2017,10,23,08,27,11.10
2017,10,23,08,28,11.10
2017,10,23,08,29,11.10
2017,10,23,08,30,11.10
2017,10,23,08,31,11.10
2017,10,23,08,32,11.10
2017,10,23,08,33,11.10
2017,10,23,08,34,11.10
2017,10,23,08,35,11.00
2017,10,23,08,36,11.00
2017,10,23,08,37,11.00
2017,10,23,08,38,11.00
2017,10,23,08,39,11.00
2017,10,23,08,40,11.00
2017,10,23,08,41,11.00
2017,10,23,08,42,11.00
2017,10,23,08,43,10.90
2017,10,23,08,44,10.90
2017,10,23,08,45,10.90
2017,10,23,08,46,10.90
2017,10,23,08,47,10.90
2017,10,23,08,48,10.90
2017,10,23,08,49,10.90
2017,10,23,08,50,10.90
2017,10,23,08,51,10.90
2017,10,23,08,52,10.90
2017,10,23,08,53,10.90
2017,10,23,08,54,10.90
2017,10,23,08,55,10.90
2017,10,23,08,56,10.90
2017,10,23,08,57,10.90
2017,10,23,08,58,10.90
2017,10,23,08,59,10.90
2017,10,23,09,00,10.90
2017,10,23,09,01,10.90
2017,10,23,09,02,10.90
2017,10,23,09,03,10.90
2017,10,23,09,04,10.90
2017,10,23,09,05,10.90
2017,10,23,09,06,10.90
2017,10,23,09,07,10.90
2017,10,23,09,08,10.90
2017,10,23,09,09,10.90
2017,10,23,09,10,10.90
2017,10,23,09,11,10.90
2017,10,23,09,12,10.90
2017,10,23,09,13,10.90
2017,10,23,09,14,10.90
2017,10,23,09,15,10.90
2017,10,23,09,16,10.90
2017,10,23,09,17,10.90
2017,10,23,09,18,10.90
2017,10,23,09,19,10.90
2017,10,23,09,20,11.00
2017,10,23,09,21,11.00
2017,10,23,09,22,11.00
2017,10,23,09,23,10.90
2017,10,23,09,24,11.00
2017,10,23,09,25,11.00
2017,10,23,09,26,11.00
2017,10,23,09,27,11.00
2017,10,23,09,28,11.00
2017,10,23,09,29,11.00
2017,10,23,09,30,11.00
2017,10,23,09,31,11.00
2017,10,23,09,32,11.00
2017,10,23,09,33,11.00
2017,10,23,09,34,11.00
2017,10,23,09,35,11.10
2017,10,23,09,36,11.10
2017,10,23,09,37,11.10
2017,10,23,09,38,11.10
2017,10,23,09,39,11.10
2017,10,23,09,40,11.20
2017,10,23,09,41,11.20
2017,10,23,09,42,11.20
2017,10,23,09,43,11.20
2017,10,23,09,44,11.20
2017,10,23,09,45,11.20
2017,10,23,09,46,11.30
2017,10,23,09,47,11.30
2017,10,23,09,48,11.30
2017,10,23,09,49,11.30
2017,10,23,09,50,11.30
2017,10,23,09,51,11.30
2017,10,23,09,52,11.30
2017,10,23,09,53,11.30
2017,10,23,09,54,11.40
2017,10,23,09,55,11.40
2017,10,23,09,56,11.40
2017,10,23,09,57,11.40
2017,10,23,09,58,11.40
2017,10,23,09,59,11.40
2017,10,23,10,00,11.40
2017,10,23,10,01,11.40
2017,10,23,10,02,11.50
2017,10,23,10,03,11.50
2017,10,23,10,04,11.50
2017,10,23,10,05,11.50
2017,10,23,10,06,11.50
2017,10,23,10,07,11.50
2017,10,23,10,08,11.50
2017,10,23,10,09,11.50
2017,10,23,10,10,11.50
2017,10,23,10,11,11.50
2017,10,23,10,12,11.50
2017,10,23,10,13,11.50
2017,10,23,10,14,11.60
2017,10,23,10,15,11.60
2017,10,23,10,16,11.60
2017,10,23,10,17,11.60
2017,10,23,10,18,11.60
2017,10,23,10,19,11.60
2017,10,23,10,20,11.60
2017,10,23,10,21,11.60
2017,10,23,10,22,11.70
2017,10,23,10,23,11.70
2017,10,23,10,24,11.70
2017,10,23,10,25,11.70
2017,10,23,10,26,11.70
2017,10,23,10,27,11.70
2017,10,23,10,28,11.80
2017,10,23,10,29,11.80
2017,10,23,10,30,11.80
2017,10,23,10,31,11.80
2017,10,23,10,32,11.80
2017,10,23,10,33,11.80
2017,10,23,10,34,11.90
2017,10,23,10,35,11.90
2017,10,23,10,36,11.90
2017,10,23,10,37,11.90
2017,10,23,10,38,11.90
2017,10,23,10,39,11.90
2017,10,23,10,40,12.00
2017,10,23,10,41,12.00
2017,10,23,10,42,12.00
2017,10,23,10,43,12.00
2017,10,23,10,44,12.00
2017,10,23,10,45,12.10
2017,10,23,10,46,12.10
2017,10,23,10,47,12.10
2017,10,23,10,48,12.10
2017,10,23,10,49,12.10
2017,10,23,10,50,12.10
2017,10,23,10,51,12.20
2017,10,23,10,52,12.20
2017,10,23,10,53,12.20
2017,10,23,10,54,12.20
2017,10,23,10,55,12.20
2017,10,23,10,56,12.20
2017,10,23,10,57,12.20
2017,10,23,10,58,12.20
2017,10,23,10,59,12.20
2017,10,23,11,00,12.20
2017,10,23,11,01,12.20
2017,10,23,11,02,12.20
2017,10,23,11,03,12.20
2017,10,23,11,04,12.10
2017,10,23,11,05,12.10
2017,10,23,11,06,12.10
2017,10,23,11,07,12.10
2017,10,23,11,08,12.10
2017,10,23,11,09,12.20
2017,10,23,11,10,12.20
2017,10,23,11,11,12.20
2017,10,23,11,12,12.20
2017,10,23,11,13,12.20
2017,10,23,11,14,12.20
2017,10,23,11,15,12.20
2017,10,23,11,16,12.20
2017,10,23,11,17,12.20
2017,10,23,11,18,12.20
2017,10,23,11,19,12.20
2017,10,23,11,20,12.20
2017,10,23,11,21,12.20
2017,10,23,11,22,12.30
2017,10,23,11,23,12.30
2017,10,23,11,24,12.30
2017,10,23,11,25,12.30
2017,10,23,11,26,12.30
2017,10,23,11,27,12.30
2017,10,23,11,28,12.30
2017,10,23,11,29,12.30
2017,10,23,11,30,12.30
2017,10,23,11,31,12.30
2017,10,23,11,32,12.30
2017,10,23,11,33,12.30
2017,10,23,11,34,12.30
2017,10,23,11,35,12.30
2017,10,23,11,36,12.30
2017,10,23,11,37,12.30
2017,10,23,11,38,12.30
2017,10,23,11,39,12.40
2017,10,23,11,40,12.30
2017,10,23,11,41,12.40
2017,10,23,11,42,12.40
2017,10,23,11,43,12.40
2017,10,23,11,44,12.40
2017,10,23,11,45,12.40
2017,10,23,11,46,12.50
2017,10,23,11,47,12.50
2017,10,23,11,48,12.50
2017,10,23,11,49,12.60
2017,10,23,11,50,12.60
2017,10,23,11,51,12.60
2017,10,23,11,52,12.60
2017,10,23,11,53,12.60
2017,10,23,11,54,12.60
2017,10,23,11,55,12.60
2017,10,23,11,56,12.60
2017,10,23,11,57,12.60
2017,10,23,11,58,12.60
2017,10,23,11,59,12.60
2017,10,23,12,00,12.60
2017,10,23,12,01,12.60
2017,10,23,12,02,12.60
2017,10,23,12,03,12.60
2017,10,23,12,04,12.60
2017,10,23,12,05,12.50
2017,10,23,12,06,12.60
2017,10,23,12,07,12.60
2017,10,23,12,08,12.60
2017,10,23,12,09,12.60
2017,10,23,12,10,12.60
2017,10,23,12,11,12.60
2017,10,23,12,12,12.60
2017,10,23,12,13,12.60
2017,10,23,12,14,12.60
2017,10,23,12,15,12.60
2017,10,23,12,16,12.50
2017,10,23,12,17,12.50
2017,10,23,12,18,12.50
2017,10,23,12,19,12.50
2017,10,23,12,20,12.50
2017,10,23,12,21,12.50
2017,10,23,12,22,12.50
2017,10,23,12,23,12.50
2017,10,23,12,24,12.50
2017,10,23,12,25,12.50
2017,10,23,12,26,12.50
2017,10,23,12,27,12.50
2017,10,23,12,28,12.50
2017,10,23,12,29,12.50
2017,10,23,12,30,12.50
2017,10,23,12,31,12.50
2017,10,23,12,32,12.50
2017,10,23,12,33,12.50
2017,10,23,12,34,12.50
2017,10,23,12,35,12.50
2017,10,23,12,36,12.40
2017,10,23,12,37,12.40
2017,10,23,12,38,12.40
2017,10,23,12,39,12.50
2017,10,23,12,40,12.50
2017,10,23,12,41,12.50
2017,10,23,12,42,12.50
2017,10,23,12,43,12.60
2017,10,23,12,44,12.60
2017,10,23,12,45,12.60
2017,10,23,12,46,12.60
2017,10,23,12,47,12.70
2017,10,23,12,48,12.70
2017,10,23,12,49,12.70
2017,10,23,12,50,12.70
2017,10,23,12,51,12.60
2017,10,23,12,52,12.60
2017,10,23,12,53,12.60
2017,10,23,12,54,12.60
2017,10,23,12,55,12.60
2017,10,23,12,56,12.60
2017,10,23,12,57,12.60
2017,10,23,12,58,12.60
2017,10,23,12,59,12.60
2017,10,23,13,00,12.60
2017,10,23,13,01,12.50
2017,10,23,13,02,12.50
2017,10,23,13,03,12.40
2017,10,23,13,04,12.40
2017,10,23,13,05,12.40
2017,10,23,13,06,12.40
2017,10,23,13,07,12.40
2017,10,23,13,08,12.40
2017,10,23,13,09,12.40
2017,10,23,13,10,12.40
2017,10,23,13,11,12.40
2017,10,23,13,12,12.40
2017,10,23,13,13,12.40
2017,10,23,13,14,12.40
2017,10,23,13,15,12.50
2017,10,23,13,16,12.50
2017,10,23,13,17,12.50
2017,10,23,13,18,12.60
2017,10,23,13,19,12.60
2017,10,23,13,20,12.60
2017,10,23,13,21,12.60
2017,10,23,13,22,12.70
2017,10,23,13,23,12.70
2017,10,23,13,24,12.70
2017,10,23,13,25,12.70
2017,10,23,13,26,12.80
2017,10,23,13,27,12.80
2017,10,23,13,28,12.80
2017,10,23,13,29,12.80
2017,10,23,13,30,12.80
2017,10,23,13,31,12.80
2017,10,23,13,32,12.90
2017,10,23,13,33,12.90
2017,10,23,13,34,12.90
2017,10,23,13,35,12.90
2017,10,23,13,36,12.90
2017,10,23,13,37,12.90
2017,10,23,13,38,12.90
2017,10,23,13,39,12.90
2017,10,23,13,40,12.90
2017,10,23,13,41,12.90
2017,10,23,13,42,12.90
2017,10,23,13,43,12.90
2017,10,23,13,44,12.90
2017,10,23,13,45,12.90
2017,10,23,13,46,12.90
2017,10,23,13,47,12.90
2017,10,23,13,48,12.90
2017,10,23,13,49,12.80
2017,10,23,13,50,12.80
2017,10,23,13,51,12.80
2017,10,23,13,52,12.80
2017,10,23,13,53,12.80
2017,10,23,13,54,12.80
2017,10,23,13,55,12.80
2017,10,23,13,56,12.80
2017,10,23,13,57,12.80
2017,10,23,13,58,12.80
2017,10,23,13,59,12.90
2017,10,23,14,00,12.90
2017,10,23,14,01,12.90
2017,10,23,14,02,12.90
2017,10,23,14,03,12.90
2017,10,23,14,04,12.90
2017,10,23,14,05,12.90
2017,10,23,14,06,12.90
2017,10,23,14,07,12.90
2017,10,23,14,08,12.90
2017,10,23,14,09,12.90
2017,10,23,14,10,12.90
2017,10,23,14,11,12.90
2017,10,23,14,12,12.90
2017,10,23,14,13,12.90
2017,10,23,14,14,13.00
2017,10,23,14,15,13.00
2017,10,23,14,16,13.10
2017,10,23,14,17,13.10
2017,10,23,14,18,13.10
2017,10,23,14,19,13.10
2017,10,23,14,20,13.20
2017,10,23,14,21,13.20
2017,10,23,14,22,13.20
2017,10,23,14,23,13.20
2017,10,23,14,24,13.20
2017,10,23,14,25,13.20
2017,10,23,14,26,13.20
2017,10,23,14,27,13.30
2017,10,23,14,28,13.30
2017,10,23,14,29,13.30
2017,10,23,14,30,13.30
2017,10,23,14,31,13.30
2017,10,23,14,32,13.30
2017,10,23,14,33,13.40
2017,10,23,14,34,13.40
2017,10,23,14,35,13.40
2017,10,23,14,36,13.40
2017,10,23,14,37,13.40
2017,10,23,14,38,13.50
2017,10,23,14,39,13.50
2017,10,23,14,40,13.60
2017,10,23,14,41,13.60
2017,10,23,14,42,13.60
2017,10,23,14,43,13.70
2017,10,23,14,44,13.70
2017,10,23,14,45,13.70
2017,10,23,14,46,13.70
2017,10,23,14,47,13.70
2017,10,23,14,48,13.70
2017,10,23,14,49,13.70
2017,10,23,14,50,13.70
2017,10,23,14,51,13.70
2017,10,23,14,52,13.70
2017,10,23,14,53,13.60
2017,10,23,14,54,13.60
2017,10,23,14,55,13.60
2017,10,23,14,56,13.60
2017,10,23,14,57,13.60
2017,10,23,14,58,13.60
2017,10,23,14,59,13.60
2017,10,23,15,00,13.60
2017,10,23,15,01,13.60
2017,10,23,15,02,13.60
2017,10,23,15,03,13.60
2017,10,23,15,04,13.50
2017,10,23,15,05,13.50
2017,10,23,15,06,13.50
2017,10,23,15,07,13.50
2017,10,23,15,08,13.40
2017,10,23,15,09,13.40
2017,10,23,15,10,13.40
2017,10,23,15,11,13.40
2017,10,23,15,12,13.40
2017,10,23,15,13,13.40
2017,10,23,15,14,13.50
2017,10,23,15,15,13.50
2017,10,23,15,16,13.50
2017,10,23,15,17,13.50
2017,10,23,15,18,13.50
2017,10,23,15,19,13.50
2017,10,23,15,20,13.50
2017,10,23,15,21,13.60
2017,10,23,15,22,13.60
2017,10,23,15,23,13.60
2017,10,23,15,24,13.60
2017,10,23,15,25,13.60
2017,10,23,15,26,13.60
2017,10,23,15,27,13.50
2017,10,23,15,28,13.50
2017,10,23,15,29,13.50
2017,10,23,15,30,13.40
2017,10,23,15,31,13.40
2017,10,23,15,32,13.40
2017,10,23,15,33,13.40
2017,10,23,15,34,13.40
2017,10,23,15,35,13.40
2017,10,23,15,36,13.40
2017,10,23,15,37,13.50
2017,10,23,15,38,13.40
2017,10,23,15,39,13.50
2017,10,23,15,40,13.50
2017,10,23,15,41,13.50
2017,10,23,15,42,13.50
2017,10,23,15,43,13.50
2017,10,23,15,44,13.60
2017,10,23,15,45,13.60
2017,10,23,15,46,13.60
2017,10,23,15,47,13.60
2017,10,23,15,48,13.60
2017,10,23,15,49,13.60
2017,10,23,15,50,13.60
2017,10,23,15,51,13.60
2017,10,23,15,52,13.70
2017,10,23,15,53,13.60
2017,10,23,15,54,13.60
2017,10,23,15,55,13.60
2017,10,23,15,56,13.60
2017,10,23,15,57,13.50
2017,10,23,15,58,13.50
2017,10,23,15,59,13.50
2017,10,23,16,00,13.50
2017,10,23,16,01,13.50
2017,10,23,16,02,13.50
2017,10,23,16,03,13.50
2017,10,23,16,04,13.40
2017,10,23,16,05,13.40
2017,10,23,16,06,13.40
2017,10,23,16,07,13.40
2017,10,23,16,08,13.40
2017,10,23,16,09,13.40
2017,10,23,16,10,13.40
2017,10,23,16,11,13.40
2017,10,23,16,12,13.40
2017,10,23,16,13,13.40
2017,10,23,16,14,13.40
2017,10,23,16,15,13.40
2017,10,23,16,16,13.40
2017,10,23,16,17,13.40
2017,10,23,16,18,13.40
2017,10,23,16,19,13.40
2017,10,23,16,20,13.40
2017,10,23,16,21,13.40
2017,10,23,16,22,13.40
2017,10,23,16,23,13.40
2017,10,23,16,24,13.40
2017,10,23,16,25,13.40
2017,10,23,16,26,13.40
2017,10,23,16,27,13.40
2017,10,23,16,28,13.40
2017,10,23,16,29,13.40
2017,10,23,16,30,13.40
2017,10,23,16,31,13.40
2017,10,23,16,32,13.30
2017,10,23,16,33,13.30
2017,10,23,16,34,13.30
2017,10,23,16,35,13.30
2017,10,23,16,36,13.30
2017,10,23,16,37,13.30
2017,10,23,16,38,13.30
2017,10,23,16,39,13.30
2017,10,23,16,40,13.30
2017,10,23,16,41,13.30
2017,10,23,16,42,13.30
2017,10,23,16,43,13.30
2017,10,23,16,44,13.30
2017,10,23,16,45,13.30
2017,10,23,16,46,13.30
2017,10,23,16,47,13.30
2017,10,23,16,48,13.30
2017,10,23,16,49,13.30
2017,10,23,16,50,13.30
2017,10,23,16,51,13.30
2017,10,23,16,52,13.30
2017,10,23,16,53,13.30
2017,10,23,16,54,13.30
2017,10,23,16,55,13.30
2017,10,23,16,56,13.30
2017,10,23,16,57,13.30
2017,10,23,16,58,13.30
2017,10,23,16,59,13.30
2017,10,23,17,00,13.30
2017,10,23,17,01,13.30
2017,10,23,17,02,13.30
2017,10,23,17,03,13.30
2017,10,23,17,04,13.30
2017,10,23,17,05,13.30
2017,10,23,17,06,13.30
2017,10,23,17,07,13.30
2017,10,23,17,08,13.30
2017,10,23,17,09,13.30
2017,10,23,17,10,13.30
2017,10,23,17,11,13.30
2017,10,23,17,12,13.30
2017,10,23,17,13,13.30
2017,10,23,17,14,13.20
2017,10,23,17,15,13.20
2017,10,23,17,16,13.20
2017,10,23,17,17,13.20
2017,10,23,17,18,13.20
2017,10,23,17,19,13.20
2017,10,23,17,20,13.20
2017,10,23,17,21,13.20
2017,10,23,17,22,13.20
2017,10,23,17,23,13.20
2017,10,23,17,24,13.20
2017,10,23,17,25,13.20
2017,10,23,17,26,13.20
2017,10,23,17,27,13.20
2017,10,23,17,28,13.20
2017,10,23,17,29,13.20
2017,10,23,17,30,13.20
2017,10,23,17,31,13.20
2017,10,23,17,32,13.20